Weather History for Spirit of St Louis, MO

Change the Weather History Date:

Saturday, January 5, 2013

  Actual Average Record
Temperature  
Mean Temperature 33 °F -  
Max Temperature 45 °F 39 °F - (-1)
Min Temperature 21 °F 21 °F - (-1)
Degree Days  
Heating Degree Days 32    
Moisture  
Dew Point 24 °F    
Average Humidity 65    
Maximum Humidity 88    
Minimum Humidity 46    
Precipitation  
Precipitation 0.00 in - - ()
Sea Level Pressure  
Sea Level Pressure 30.24 in    
Wind  
Wind Speed 3 mph (SW)    
Max Wind Speed 13 mph    
Max Gust Speed 20 mph    
Visibility 10 miles    
Events      
Averages and records for this station are not official NWS values.
T = Trace of Precipitation, MM = Missing Value Source: NWS Daily Summary

Daily Weather History Graph

Daily Weather History Graph

Search for Another Location

Airport:

Trip Planner

Search our weather history database for the weather conditions in past years. The results will help you decide how hot, cold, wet, or windy it might be!

Date:

Astronomy

Jan. 05, 2013 Rise Set
Actual Time 7:20 AM CST 4:55 PM CST
Civil Twilight 6:51 AM CST 5:25 PM CST
Nautical Twilight 6:18 AM CST 5:58 PM CST
Astronomical Twilight 5:46 AM CST 6:30 PM CST
Moon 12:29 AM CST (1/5) 11:43 AM CST (1/5)
Length of Visible Light 10h 34m
Length of Day
9h 34m
Last Quarter, 44% of the Moon is Illuminated
Jan 5
Last Quarter
Jan 11
New
Jan 18
First Quarter
Jan 26
Full
Feb 3
Last Quarter

Hourly Weather History & Observations

Time (CST) Temp. Windchill Dew Point Humidity Pressure Visibility Wind Dir Wind Speed Gust Speed Precip Events Conditions
12:54 AM 21.0 °F - 18.0 °F 88% 30.33 in 10.0 mi Calm Calm - N/A   Clear
1:54 AM 21.9 °F - 18.0 °F 85% 30.34 in 10.0 mi Calm Calm - N/A   Clear
2:54 AM 21.0 °F - 16.0 °F 81% 30.32 in 10.0 mi Calm Calm - N/A   Clear
3:54 AM 21.0 °F - 17.1 °F 85% 30.31 in 10.0 mi Calm Calm - N/A   Clear
4:54 AM 21.0 °F - 16.0 °F 81% 30.32 in 10.0 mi Calm Calm - N/A   Clear
5:54 AM 24.1 °F - 18.0 °F 77% 30.32 in 10.0 mi Calm Calm - N/A   Clear
6:54 AM 27.0 °F - 21.0 °F 78% 30.32 in 10.0 mi Calm Calm - N/A   Clear
7:54 AM 27.0 °F - 23.0 °F 85% 30.33 in 10.0 mi Calm Calm - N/A   Partly Cloudy
8:54 AM 30.9 °F - 26.1 °F 82% 30.33 in 10.0 mi Calm Calm - N/A   Overcast
9:54 AM 37.0 °F 30.4 °F 24.1 °F 59% 30.34 in 10.0 mi SW 9.2 mph - N/A   Overcast
10:54 AM 39.9 °F 33.4 °F 27.0 °F 60% 30.30 in 10.0 mi WSW 10.4 mph - N/A   Scattered Clouds
11:54 AM 42.1 °F 39.2 °F 27.0 °F 55% 30.25 in 10.0 mi WSW 4.6 mph - N/A   Overcast
12:54 PM 45.0 °F 40.6 °F 25.0 °F 46% 30.21 in 10.0 mi SSW 8.1 mph - N/A   Overcast
1:54 PM 45.0 °F 40.1 °F 26.1 °F 48% 30.17 in 10.0 mi South 9.2 mph - N/A   Mostly Cloudy
2:54 PM 45.0 °F 39.7 °F 26.1 °F 48% 30.18 in 10.0 mi SW 10.4 mph - N/A   Overcast
3:54 PM 44.1 °F 41.5 °F 27.0 °F 51% 30.17 in 10.0 mi SSW 4.6 mph 16.1 mph N/A   Overcast
4:54 PM 43.0 °F 41.3 °F 27.0 °F 53% 30.17 in 10.0 mi SSW 3.5 mph - N/A   Overcast
5:54 PM 42.1 °F 40.2 °F 27.0 °F 55% 30.18 in 10.0 mi SSW 3.5 mph - N/A   Overcast
6:54 PM 42.1 °F 37.1 °F 27.0 °F 55% 30.18 in 10.0 mi SSW 8.1 mph - N/A   Overcast
7:54 PM 43.0 °F 38.8 °F 26.1 °F 51% 30.17 in 10.0 mi SSW 6.9 mph - N/A   Overcast
8:54 PM 43.0 °F 38.2 °F 27.0 °F 53% 30.15 in 10.0 mi SSW 8.1 mph - N/A   Overcast
9:54 PM 42.1 °F 37.7 °F 28.0 °F 58% 30.15 in 10.0 mi WSW 6.9 mph - N/A   Overcast
10:54 PM 42.1 °F 36.6 °F 28.9 °F 60% 30.14 in 10.0 mi SW 9.2 mph - N/A   Overcast
11:54 PM 42.1 °F 35.2 °F 30.0 °F 62% 30.12 in 10.0 mi SW 12.7 mph 19.6 mph N/A   Overcast